This is the latest recevied weather packets stored in our database for station/object WD4IXD-WX. If no packets are shown the sender has not sent any weather packets the latest 10 day(s).
| Time | Temp. | Humidity | Pressure | Rain* | Wind** | Luminosity | Snow |
|---|---|---|---|---|---|---|---|
| 1778105404 | -1.67° C | 73% | 1017.8 hPa | 0.25 mm | - | 738 W/m² | - |
| 1778105104 | -1.67° C | 73% | 1017.8 hPa | 0.25 mm | - | 752 W/m² | - |
| 1778104803 | -1.67° C | 71% | 1017.8 hPa | 0.25 mm | - | 763 W/m² | - |
| 1778104504 | -1.67° C | 73% | 1017.8 hPa | 0.25 mm | - | 784 W/m² | - |
| 1778104204 | -2.22° C | 75% | 1017.8 hPa | 0.25 mm | - | 802 W/m² | - |
| 1778103904 | -2.22° C | 74% | 1017.8 hPa | 0.25 mm | - | 823 W/m² | - |
| 1778103604 | -2.22° C | 75% | 1017.8 hPa | 0.25 mm | - | 629 W/m² | - |
| 1778103304 | -2.22° C | 72% | 1017.8 hPa | 0.51 mm | - | 450 W/m² | - |
| 1778103004 | -2.22° C | 72% | 1017.8 hPa | 0.51 mm | - | 501 W/m² | - |
| 1778102704 | -2.22° C | 74% | 1017.9 hPa | 0.25 mm | - | 496 W/m² | - |
| 1778102404 | -2.22° C | 74% | 1017.8 hPa | 0.51 mm | - | 777 W/m² | - |
| 1778102104 | -2.22° C | 75% | 1017.8 hPa | 0.76 mm | - | 1150 W/m² | - |
| 1778101804 | -2.22° C | 74% | 1017.8 hPa | 0.76 mm | - | 1078 W/m² | - |
| 1778101504 | -2.22° C | 73% | 1017.8 hPa | 0.76 mm | - | 879 W/m² | - |
| 1778101204 | -2.22° C | 75% | 1017.8 hPa | 0.76 mm | - | 1021 W/m² | - |
| 1778100903 | -2.22° C | 73% | 1017.7 hPa | 0.76 mm | - | 951 W/m² | - |
| 1778100604 | -2.22° C | 74% | 1017.7 hPa | 0.76 mm | - | 960 W/m² | - |
| 1778100304 | -2.22° C | 74% | 1017.7 hPa | 0.76 mm | - | 1016 W/m² | - |
| 1778100004 | -2.22° C | 73% | 1017.7 hPa | 0.76 mm | - | 972 W/m² | - |
| 1778099704 | -2.22° C | 74% | 1017.7 hPa | 0.51 mm | - | 953 W/m² | - |
| 1778099403 | -1.67° C | 72% | 1017.7 hPa | 0.51 mm | - | 962 W/m² | - |
| 1778099104 | -1.67° C | 74% | 1017.7 hPa | 0.51 mm | - | 967 W/m² | - |
| 1778098804 | -1.67° C | 74% | 1017.6 hPa | 0.25 mm | - | 976 W/m² | - |
| 1778098504 | -1.67° C | 74% | 1017.6 hPa | 0 mm | - | 981 W/m² | - |
| 1778098204 | -1.67° C | 73% | 1017.6 hPa | 0 mm | - | 988 W/m² | - |
* Rain latest hour (hover to see other rain measurements)
** Current wind speed in m/s (hover to see current wind gust speed)